When you browse on this site, cookies collect data to enhance your experience and personalize the content and advertising you see.
Visit our Privacy Policy to learn more. By continuing to use the site, you agree to this use of cookies and data.
  • In Lithuania
  • List of Countries
  • For 7 days
  • Water Temperature
  • Satellite Maps
  • Weather Map
  • Weather Widgets
  • user-avatar
    Login

    Hourly Weather Dachnyy

    Today, 22 March, Friday

    Time Temperature Precipitation Wind Pressure Humidity
    00:00 +7°C° 0 mm 3 mps 763 mmHg 76%
    01:00 +5°C° 0 mm 4 mps 763 mmHg 75%
    02:00 +5°C° 0 mm 4 mps 763 mmHg 73%
    03:00 +4°C° 0 mm 4 mps 763 mmHg 69%
    04:00 +4°C° 0 mm 4 mps 763 mmHg 72%
    05:00 +4°C° 0 mm 4 mps 763 mmHg 74%
    06:00 +4°C° 0 mm 4 mps 763 mmHg 76%
    07:00 +4°C° 0 mm 4 mps 763 mmHg 73%
    08:00 +5°C° 0 mm 4 mps 763 mmHg 70%
    09:00 +5°C° 0 mm 5 mps 763 mmHg 67%
    10:00 +6°C° 0 mm 5 mps 762 mmHg 62%
    11:00 +7°C° 0 mm 6 mps 762 mmHg 56%
    12:00 +7°C° 0 mm 6 mps 762 mmHg 51%
    13:00 +8°C° 0 mm 6 mps 762 mmHg 50%
    14:00 +8°C° 0 mm 6 mps 761 mmHg 49%
    15:00 +8°C° 0 mm 6 mps 761 mmHg 49%
    16:00 +8°C° 0 mm 5 mps 761 mmHg 51%
    17:00 +7°C° 0 mm 5 mps 761 mmHg 53%
    18:00 +7°C° 0 mm 4 mps 760 mmHg 55%
    19:00 +7°C° 0 mm 5 mps 760 mmHg 57%
    20:00 +6°C° 0 mm 5 mps 759 mmHg 59%
    21:00 +4°C° 0 mm 6 mps 759 mmHg 60%
    22:00 +4°C° 0.1 mm 7 mps 758 mmHg 61%
    23:00 +4°C° 0.1 mm 8 mps 757 mmHg 62%

    Tomorrow, 23 March, Saturday

    Time Temperature Precipitation Wind Pressure Humidity
    00:00 +3°C° 0.1 mm 9 mps 756 mmHg 63%
    01:00 +3°C° 1.4 mm 9 mps 755 mmHg 70%
    02:00 +3°C° 1.4 mm 10 mps 755 mmHg 77%
    03:00 +3°C° 1.4 mm 11 mps 754 mmHg 85%
    04:00 +3°C° 0.5 mm 9 mps 754 mmHg 82%
    05:00 +3°C° 0.5 mm 7 mps 755 mmHg 80%
    06:00 +3°C° 0.5 mm 5 mps 755 mmHg 77%
    07:00 +3°C° 0 mm 5 mps 755 mmHg 72%
    08:00 +3°C° 0 mm 6 mps 756 mmHg 66%
    09:00 +3°C° 0 mm 6 mps 756 mmHg 60%
    10:00 +3°C° 0 mm 5 mps 756 mmHg 57%
    11:00 +5°C° 0 mm 5 mps 756 mmHg 53%
    12:00 +5°C° 0 mm 5 mps 756 mmHg 50%
    13:00 +6°C° 0 mm 5 mps 756 mmHg 48%
    14:00 +6°C° 0 mm 5 mps 756 mmHg 47%
    15:00 +6°C° 0 mm 5 mps 757 mmHg 46%
    16:00 +6°C° 0 mm 4 mps 757 mmHg 48%
    17:00 +5°C° 0 mm 4 mps 757 mmHg 51%
    18:00 +5°C° 0 mm 4 mps 757 mmHg 53%
    19:00 +4°C° 0 mm 3 mps 757 mmHg 58%
    20:00 +3°C° 0 mm 3 mps 758 mmHg 63%
    21:00 +4°C° 0 mm 2 mps 758 mmHg 68%
    22:00 +3°C° 0 mm 2 mps 758 mmHg 70%
    23:00 +3°C° 0 mm 2 mps 758 mmHg 73%

    Day after tomorrow, 24 March, Sunday

    Time Temperature Precipitation Wind Pressure Humidity
    00:00 +2°C° 0 mm 2 mps 758 mmHg 76%
    01:00 +2°C° 0 mm 2 mps 758 mmHg 77%
    02:00 +1°C° 0 mm 2 mps 758 mmHg 79%
    03:00 +1°C° 0 mm 2 mps 758 mmHg 80%
    04:00 0°C° 0 mm 3 mps 758 mmHg 82%
    05:00 -1°C° 0 mm 3 mps 758 mmHg 83%
    06:00 -1°C° 0 mm 3 mps 758 mmHg 84%
    07:00 +1°C° 0 mm 3 mps 759 mmHg 78%
    08:00 +2°C° 0 mm 3 mps 759 mmHg 71%
    09:00 +3°C° 0 mm 4 mps 759 mmHg 64%
    10:00 +4°C° 0 mm 4 mps 759 mmHg 65%
    11:00 +4°C° 0 mm 4 mps 759 mmHg 65%
    12:00 +5°C° 0 mm 4 mps 759 mmHg 65%
    13:00 +5°C° 0.1 mm 3 mps 758 mmHg 63%
    14:00 +7°C° 0.1 mm 3 mps 758 mmHg 62%
    15:00 +7°C° 0.1 mm 2 mps 758 mmHg 60%
    16:00 +7°C° 0.1 mm 2 mps 758 mmHg 61%
    17:00 +7°C° 0.1 mm 2 mps 758 mmHg 62%
    18:00 +7°C° 0.1 mm 2 mps 758 mmHg 63%
    19:00 +6°C° 0 mm 2 mps 759 mmHg 67%
    20:00 +4°C° 0 mm 3 mps 759 mmHg 70%
    21:00 +4°C° 0 mm 3 mps 760 mmHg 74%
    22:00 +3°C° 0 mm 3 mps 759 mmHg 77%
    23:00 +3°C° 0 mm 3 mps 759 mmHg 80%

    25 March, Monday

    Time Temperature Precipitation Wind Pressure Humidity
    00:00 +1°C° 0 mm 4 mps 759 mmHg 83%
    01:00 +2°C° 0 mm 3 mps 759 mmHg 84%
    02:00 +1°C° 0 mm 3 mps 759 mmHg 86%
    03:00 +1°C° 0 mm 3 mps 759 mmHg 87%
    04:00 +1°C° 0 mm 3 mps 759 mmHg 88%
    05:00 0°C° 0 mm 3 mps 759 mmHg 89%
    06:00 0°C° 0 mm 3 mps 759 mmHg 89%
    07:00 0°C° 0 mm 4 mps 759 mmHg 84%
    08:00 +1°C° 0 mm 4 mps 759 mmHg 78%
    09:00 +3°C° 0 mm 5 mps 759 mmHg 73%
    10:00 +5°C° 0 mm 5 mps 759 mmHg 67%
    11:00 +6°C° 0 mm 5 mps 759 mmHg 61%
    12:00 +8°C° 0 mm 6 mps 758 mmHg 56%
    13:00 +8°C° 0 mm 6 mps 758 mmHg 56%
    14:00 +9°C° 0 mm 6 mps 757 mmHg 56%
    15:00 +9°C° 0 mm 6 mps 757 mmHg 57%
    16:00 +9°C° 0 mm 5 mps 757 mmHg 60%
    17:00 +8°C° 0 mm 4 mps 757 mmHg 63%
    18:00 +8°C° 0 mm 4 mps 757 mmHg 66%
    19:00 +8°C° 0 mm 3 mps 757 mmHg 69%
    20:00 +8°C° 0 mm 3 mps 757 mmHg 71%
    21:00 +7°C° 0 mm 3 mps 757 mmHg 74%
    22:00 +7°C° 0.1 mm 3 mps 757 mmHg 77%
    23:00 +7°C° 0.1 mm 2 mps 757 mmHg 79%

    26 March, Tuesday

    Time Temperature Precipitation Wind Pressure Humidity
    00:00 +6°C° 0.1 mm 2 mps 757 mmHg 82%
    01:00 +6°C° 0.1 mm 2 mps 757 mmHg 84%
    02:00 +7°C° 0.1 mm 1 mps 757 mmHg 86%
    03:00 +7°C° 0.1 mm 1 mps 757 mmHg 88%
    04:00 +7°C° 0.2 mm 1 mps 758 mmHg 89%
    05:00 +6°C° 0.2 mm 1 mps 758 mmHg 90%
    06:00 +6°C° 0.2 mm 1 mps 758 mmHg 91%
    07:00 +7°C° 0.1 mm 1 mps 758 mmHg 87%
    08:00 +7°C° 0.1 mm 1 mps 758 mmHg 84%
    09:00 +7°C° 0.1 mm 2 mps 758 mmHg 80%
    10:00 +8°C° 0 mm 2 mps 758 mmHg 76%
    11:00 +9°C° 0 mm 2 mps 758 mmHg 71%
    12:00 +9°C° 0 mm 2 mps 758 mmHg 67%
    13:00 +9°C° 0.1 mm 2 mps 758 mmHg 68%
    14:00 +9°C° 0.1 mm 2 mps 758 mmHg 69%
    15:00 +9°C° 0.1 mm 2 mps 758 mmHg 69%
    16:00 +10°C° 0.1 mm 1 mps 758 mmHg 72%
    17:00 +10°C° 0.1 mm 1 mps 758 mmHg 74%
    18:00 +10°C° 0.1 mm 1 mps 758 mmHg 77%
    19:00 +9°C° 0 mm 1 mps 759 mmHg 81%
    20:00 +8°C° 0 mm 1 mps 759 mmHg 84%
    21:00 +7°C° 0 mm 2 mps 760 mmHg 88%
    22:00 +6°C° 0 mm 2 mps 760 mmHg 89%
    23:00 +6°C° 0 mm 2 mps 760 mmHg 89%

    27 March, Wednesday

    Time Temperature Precipitation Wind Pressure Humidity
    00:00 +5°C° 0 mm 2 mps 760 mmHg 90%
    01:00 +5°C° 0 mm 2 mps 761 mmHg 89%
    02:00 +4°C° 0 mm 2 mps 761 mmHg 88%
    03:00 +4°C° 0 mm 2 mps 761 mmHg 87%
    04:00 +4°C° 0 mm 2 mps 761 mmHg 85%
    05:00 +3°C° 0 mm 2 mps 762 mmHg 82%
    06:00 +3°C° 0 mm 2 mps 762 mmHg 80%
    07:00 +5°C° 0 mm 2 mps 763 mmHg 72%
    08:00 +6°C° 0 mm 2 mps 763 mmHg 65%
    09:00 +8°C° 0 mm 3 mps 763 mmHg 57%
    10:00 +9°C° 0 mm 3 mps 763 mmHg 51%
    11:00 +10°C° 0 mm 3 mps 763 mmHg 45%
    12:00 +11°C° 0 mm 3 mps 763 mmHg 39%
    13:00 +11°C° 0 mm 3 mps 763 mmHg 38%
    14:00 +12°C° 0 mm 3 mps 763 mmHg 37%
    15:00 +12°C° 0 mm 3 mps 763 mmHg 35%
    16:00 +12°C° 0 mm 3 mps 763 mmHg 39%
    17:00 +12°C° 0 mm 2 mps 763 mmHg 43%
    18:00 +10°C° 0 mm 2 mps 763 mmHg 47%
    19:00 +9°C° 0 mm 2 mps 764 mmHg 49%
    20:00 +8°C° 0 mm 2 mps 764 mmHg 50%
    21:00 +7°C° 0 mm 2 mps 764 mmHg 52%
    22:00 +7°C° 0 mm 2 mps 764 mmHg 54%
    23:00 +6°C° 0 mm 2 mps 764 mmHg 55%
    Show more